[[{"header":{"parameterUnit":"m.s-1","parameterCategory":1,"la1":30.2991,"la2":30.254,"lo1":-89.0895,"lo2":-89.0444,"dy":0.0017,"dx":0.0017,"nx":28,"ny":28,"refTime":"2024-07-06T21:00:00:Z","depth":0,"parameterNumber":2,"parameterNumberName":"U-component_of_WINDS"},"data":[0,0,0,0,0,0,0,0,0,0,0,0,0,0,0,0,0,0,0,0,0,0,0,0,0,0,0,0,0,0,0,0,0,0,0,0,0,0,0,0,0,0,0,0,0,0,0,0,0,0,0,0,0,0,0,0,0,0,1.8841,1.8842,0,1.8958,1.8959,1.896,1.8999,1.8998,1.8998,1.8997,1.9119,1.9122,1.9126,0,0,0,0,0,0,0,0,0,0,0,0,0,1.865,1.8653,1.884,1.8842,1.8843,1.8958,1.8959,1.8961,1.8999,1.8998,1.8998,1.8997,1.9118,1.9122,1.9126,0,0,0,0,0,0,0,0,0,0,0,0,0,1.8747,1.8655,1.884,1.8876,1.8881,1.8957,1.8959,1.8961,1.8999,1.8998,1.8997,1.8997,1.9116,1.9121,1.9127,1.9177,0,0,1.9144,1.9146,0,0,0,0,0,0,0,0,1.8741,1.8754,1.8869,1.8874,1.8879,1.8963,1.8937,1.9034,1.8999,1.8954,1.8997,1.8996,1.9068,1.9077,1.9101,1.9183,1.9188,1.9145,1.9148,1.915,1.9152,0,0,0,0,0,0,0,1.8734,1.8749,1.8887,1.8871,1.8877,1.8887,1.8899,1.8955,1.9014,1.8958,1.8961,1.8974,1.907,1.9095,1.9104,1.919,1.9144,1.9149,1.9153,1.9155,1.9317,1.9318,0,0,0,0,0,0,1.8722,1.8743,1.8883,1.889,1.8807,1.8891,1.8905,1.8937,1.9013,1.9024,1.8975,1.8976,1.9086,1.9097,1.9108,1.9171,1.915,1.9155,1.9159,1.9316,1.9317,1.9318,0,0,0,0,0,0,1.8717,1.8734,1.8878,1.8818,1.8837,1.8895,1.893,1.8939,1.8965,1.9026,1.9037,1.899,1.9086,1.9101,1.9159,1.9176,1.9158,1.9163,1.9315,1.9316,1.9318,1.9297,0,0,0,0,0,0,1.8712,1.8732,1.8751,1.8818,1.884,1.8927,1.8931,1.8942,1.8974,1.8976,1.9043,1.9053,1.9087,1.9151,1.9165,1.9183,1.9167,1.9314,1.9316,1.9317,1.9296,1.9298,1.9298,0,0,0,0,0,1.8705,1.8741,1.8752,1.8769,1.8865,1.8928,1.8941,1.8978,1.8975,1.8995,1.9034,1.9051,1.9172,1.9156,1.9173,1.9193,1.9313,1.9315,1.9317,1.9296,1.9297,1.9298,0,0,0,0,0,0,1.8676,1.8751,1.8764,1.8823,1.8869,1.8934,1.8961,1.8978,1.9026,1.9026,1.9071,1.9085,1.914,1.9173,1.9154,1.9245,1.9243,1.9249,1.9221,1.9223,1.9224,1.9215,1.9172,0,0,0,0,0,1.8676,1.8721,1.8784,1.883,1.8852,1.8902,1.8931,1.8956,1.9005,1.9025,1.9068,1.9116,1.9165,1.9196,1.9244,1.9301,1.9316,1.9323,1.9324,1.9325,1.9329,1.9361,1.9364,1.9325,1.9325,1.9325,0,0,1.8678,1.8724,1.875,1.8825,1.8864,1.8909,1.8919,1.8966,1.9,1.9032,1.909,1.9123,1.918,1.9237,1.9265,1.9266,1.9343,1.9327,1.9327,1.9331,1.9363,1.9367,1.937,1.9327,1.9327,1.9326,0,0,1.8704,1.8744,1.8786,1.8824,1.8882,1.8915,1.8925,1.8988,1.9011,1.9069,1.9094,1.9135,1.9218,1.9257,1.9288,1.9327,1.9344,1.9341,1.9346,1.9377,1.938,1.9383,1.9396,1.94,1.9345,1.9345,1.9345,0,1.8699,1.8767,1.8805,1.8851,1.8883,1.8914,1.8957,1.8993,1.9063,1.9085,1.9085,1.9189,1.9229,1.9295,1.9305,1.9329,1.9341,1.9334,1.9376,1.938,1.9383,1.9396,1.9401,1.9344,1.9345,1.9345,1.9345,0,1.8757,1.8804,1.8832,1.8898,1.8934,1.8978,1.9023,1.9054,1.9075,1.9108,1.9167,1.9216,1.9274,1.9292,1.9313,1.9361,1.936,1.9367,1.9367,1.9385,1.9398,1.9404,1.9343,1.9344,1.9344,1.9344,0,0,1.8768,1.8855,1.8864,1.8895,1.896,1.8998,1.9043,1.9099,1.9125,1.9172,1.9211,1.928,1.9287,1.9321,1.9348,1.9374,1.9401,1.9379,1.9381,1.938,1.9456,1.9449,1.9455,1.9413,1.9414,1.9415,1.9451,0,1.8802,1.8884,1.8919,1.8985,1.9029,1.9058,1.9098,1.9142,1.9174,1.9216,1.9251,1.9299,1.9305,1.9326,1.9353,1.9392,1.9417,1.939,1.9449,1.9451,1.9433,1.9462,1.9455,1.9487,1.9456,1.9457,1.9458,0,1.8852,1.8899,1.8969,1.9028,1.9048,1.9083,1.9137,1.9176,1.9227,1.9248,1.9286,1.9311,1.9359,1.9355,1.9422,1.9403,1.943,1.9452,1.9454,1.9461,1.9455,1.9468,1.9498,1.9503,1.9467,1.9466,1.9465,0,1.8852,1.8933,1.8985,1.901,1.9081,1.9105,1.9135,1.9186,1.9217,1.9264,1.9284,1.9337,1.9365,1.9405,1.9443,1.9437,1.9506,1.9506,1.9525,1.9524,1.9538,1.9537,1.9572,1.9556,1.9556,1.9556,1.9556,0,1.8886,1.8927,1.8986,1.9018,1.9065,1.9105,1.9151,1.9184,1.9228,1.9266,1.9295,1.9331,1.9379,1.9421,1.9451,1.9502,1.9515,1.9533,1.954,1.953,1.9528,1.9548,1.9546,1.9557,1.9557,1.9557,1.9556,0,1.8894,1.8935,1.8993,1.9055,1.9072,1.9104,1.9157,1.9189,1.9222,1.927,1.9284,1.9336,1.9386,1.9428,1.9495,1.9515,1.9567,1.9576,1.955,1.9553,1.957,1.9568,1.9619,1.9628,1.9606,1.9606,1.9606,0,1.8912,1.8944,1.901,1.9038,1.9068,1.9112,1.9144,1.9185,1.9217,1.9276,1.9301,1.9354,1.9398,1.9477,1.952,1.9571,1.9581,1.9596,1.9589,1.9577,1.9581,1.9578,1.9581,1.9596,1.9596,1.9596,1.9596,0,1.894,1.8959,1.9003,1.9055,1.9091,1.9134,1.9177,1.9198,1.9247,1.9281,1.9333,1.9367,1.9435,1.9486,1.9541,1.9573,1.9593,1.9598,1.9605,1.9595,1.9578,1.9586,1.955,1.9597,1.9597,1.9597,1.9597,1.9597,1.8954,1.8983,1.9034,1.9082,1.9119,1.9158,1.9191,1.9228,1.9271,1.9329,1.9351,1.9403,1.9453,1.9529,1.9561,1.9602,1.9605,1.9615,1.9618,1.9619,1.9617,1.9571,1.9613,1.9613,1.9613,1.9613,1.9613,0,1.8982,1.9016,1.906,1.912,1.9157,1.9172,1.9221,1.9251,1.9297,1.9341,1.9384,1.9443,1.9493,1.954,1.9592,1.9616,1.9626,1.9628,1.9627,1.9633,1.9613,1.9601,1.9619,1.9619,1.9619,1.9619,1.9619,1.9619,1.9002,1.9053,1.9077,1.9146,1.918,1.9232,1.9258,1.9294,1.933,1.9394,1.9435,1.9465,1.9511,1.9566,1.9612,1.9625,1.9642,1.9642,1.9657,1.9636,1.9635,1.9634,1.9623,1.9645,1.9645,1.9674,1.9674,1.9674]},{"header":{"parameterUnit":"m.s-1","parameterCategory":1,"la1":30.2991,"la2":30.254,"lo1":-89.0895,"lo2":-89.0444,"dy":0.0017,"dx":0.0017,"nx":28,"ny":28,"refTime":"2024-07-06T21:00:00:Z","depth":0,"parameterNumber":3,"parameterNumberName":"V-component_of_WINDS"},"data":[0,0,0,0,0,0,0,0,0,0,0,0,0,0,0,0,0,0,0,0,0,0,0,0,0,0,0,0,0,0,0,0,0,0,0,0,0,0,0,0,0,0,0,0,0,0,0,0,0,0,0,0,0,0,0,0,0,0,3.143,3.143,0,3.1426,3.1426,3.1426,3.1439,3.144,3.144,3.144,3.1435,3.1434,3.1434,0,0,0,0,0,0,0,0,0,0,0,0,0,3.1445,3.1445,3.143,3.143,3.143,3.1426,3.1426,3.1426,3.1439,3.144,3.144,3.1441,3.1435,3.1434,3.1434,0,0,0,0,0,0,0,0,0,0,0,0,0,3.144,3.1445,3.143,3.1436,3.1436,3.1426,3.1426,3.1426,3.1439,3.144,3.144,3.1441,3.1435,3.1434,3.1433,3.1417,0,0,3.1431,3.1431,0,0,0,0,0,0,0,0,3.144,3.1439,3.1435,3.1435,3.1436,3.1434,3.143,3.1423,3.1439,3.1438,3.144,3.1441,3.1434,3.1433,3.1431,3.1417,3.1416,3.1431,3.1431,3.143,3.143,0,0,0,0,0,0,0,3.144,3.1439,3.1428,3.1435,3.1435,3.1438,3.1438,3.1428,3.1432,3.1438,3.1439,3.1439,3.1434,3.1432,3.1431,3.1416,3.1431,3.143,3.143,3.143,3.1386,3.1386,0,0,0,0,0,0,3.144,3.144,3.1429,3.1428,3.144,3.1437,3.1437,3.1434,3.1433,3.1433,3.1438,3.1439,3.1433,3.1432,3.1431,3.141,3.143,3.1429,3.1429,3.1387,3.1386,3.1386,0,0,0,0,0,0,3.1441,3.1439,3.1429,3.1434,3.1433,3.1436,3.1433,3.1434,3.1431,3.1433,3.1433,3.1435,3.1433,3.1432,3.142,3.141,3.1429,3.1428,3.1388,3.1387,3.1386,3.137,0,0,0,0,0,0,3.1441,3.1439,3.1434,3.1434,3.1433,3.1419,3.1432,3.1433,3.143,3.1432,3.143,3.143,3.1434,3.1421,3.1419,3.141,3.1428,3.1389,3.1387,3.1386,3.1371,3.1368,3.1366,0,0,0,0,0,3.1442,3.1429,3.1433,3.1432,3.1426,3.1418,3.1417,3.1422,3.1429,3.1423,3.1424,3.143,3.1412,3.142,3.1418,3.1408,3.1389,3.1388,3.1386,3.1372,3.1369,3.1366,0,0,0,0,0,0,3.1427,3.1429,3.1434,3.1421,3.142,3.142,3.1413,3.1418,3.1414,3.1415,3.1421,3.142,3.1407,3.1406,3.1415,3.1391,3.1402,3.14,3.1392,3.1389,3.1386,3.1386,3.1427,0,0,0,0,0,3.1422,3.1417,3.1419,3.1407,3.1406,3.141,3.1406,3.141,3.1408,3.1407,3.1407,3.1404,3.1398,3.1393,3.1387,3.1371,3.137,3.1363,3.1361,3.1359,3.1357,3.1347,3.1343,3.1381,3.1381,3.1381,0,0,3.1413,3.1413,3.1409,3.1404,3.1403,3.1396,3.1409,3.1401,3.1396,3.1406,3.1395,3.1394,3.1391,3.1377,3.1371,3.1376,3.1346,3.1357,3.1355,3.1354,3.1345,3.1341,3.1338,3.138,3.138,3.138,0,0,3.1391,3.1392,3.1382,3.138,3.1379,3.1381,3.1379,3.1379,3.1379,3.1368,3.1375,3.1368,3.1357,3.1354,3.1351,3.1328,3.1333,3.1326,3.1312,3.1302,3.1299,3.1297,3.1287,3.1284,3.1324,3.1324,3.1324,0,3.1379,3.137,3.1376,3.1367,3.1365,3.1374,3.1363,3.1362,3.1358,3.1355,3.1362,3.1347,3.1346,3.133,3.1325,3.1322,3.1319,3.1326,3.13,3.1297,3.1295,3.1286,3.1282,3.1323,3.1323,3.1323,3.1323,0,3.1354,3.1348,3.134,3.1336,3.1333,3.1323,3.1327,3.1322,3.1326,3.1327,3.1315,3.1314,3.1307,3.1304,3.1308,3.1289,3.1292,3.1299,3.131,3.129,3.1282,3.1278,3.1322,3.1322,3.1322,3.1323,0,0,3.1324,3.1324,3.132,3.1319,3.1317,3.1312,3.1302,3.1296,3.1292,3.1289,3.128,3.127,3.1276,3.1273,3.1276,3.1268,3.1248,3.1275,3.1275,3.1269,3.1225,3.122,3.1216,3.1251,3.1251,3.125,3.1225,0,3.1302,3.1287,3.1291,3.1275,3.1268,3.1277,3.1268,3.1266,3.1267,3.126,3.1261,3.1253,3.1262,3.126,3.1252,3.1252,3.1239,3.1254,3.1242,3.1242,3.1242,3.1211,3.1206,3.1182,3.1222,3.1221,3.1221,0,3.1275,3.1271,3.1254,3.1253,3.1251,3.1243,3.1237,3.1232,3.1229,3.1229,3.1225,3.123,3.1219,3.1231,3.1215,3.1225,3.1221,3.122,3.1219,3.1217,3.123,3.1208,3.1175,3.1171,3.1216,3.1217,3.1217,0,3.1253,3.1243,3.1232,3.123,3.1229,3.1223,3.1222,3.122,3.1216,3.1211,3.1208,3.1202,3.1198,3.1192,3.1194,3.1202,3.1178,3.1189,3.1177,3.1177,3.1171,3.1171,3.1135,3.1169,3.1169,3.1169,3.117,0,3.1228,3.1217,3.1222,3.1215,3.1203,3.1208,3.1195,3.1195,3.1193,3.1185,3.1192,3.1184,3.1188,3.118,3.1181,3.1168,3.1166,3.1166,3.1166,3.1165,3.1164,3.1161,3.1162,3.1169,3.1169,3.1169,3.1169,0,3.1201,3.1204,3.1192,3.1192,3.1192,3.1183,3.1182,3.1175,3.1176,3.1166,3.1163,3.1165,3.1156,3.1158,3.1147,3.1148,3.1131,3.1134,3.1132,3.1132,3.1119,3.112,3.108,3.1074,3.1112,3.1112,3.1112,0,3.1184,3.1176,3.1175,3.1171,3.117,3.1162,3.1158,3.1163,3.1158,3.1153,3.1146,3.1138,3.1132,3.1116,3.1116,3.1108,3.111,3.1096,3.1108,3.1107,3.1108,3.1108,3.1107,3.1093,3.1093,3.1093,3.1092,0,3.1154,3.1156,3.115,3.1145,3.114,3.1136,3.1132,3.1128,3.1132,3.1126,3.1117,3.1112,3.1102,3.1093,3.1085,3.1083,3.1087,3.1088,3.1085,3.1083,3.1082,3.1081,3.1124,3.1089,3.1089,3.109,3.109,3.109,3.1131,3.1124,3.1122,3.1115,3.1113,3.1109,3.1102,3.1103,3.1096,3.1088,3.1091,3.108,3.1076,3.1067,3.1063,3.1054,3.1059,3.1054,3.1053,3.1052,3.105,3.1084,3.1053,3.1053,3.1053,3.1053,3.1053,0,3.1101,3.11,3.1094,3.1088,3.1082,3.1089,3.1085,3.1079,3.107,3.1066,3.106,3.1049,3.104,3.1038,3.103,3.1023,3.1024,3.102,3.102,3.1019,3.1046,3.105,3.1019,3.1019,3.1019,3.1019,3.1019,3.1019,3.1084,3.1072,3.1074,3.106,3.1059,3.105,3.1047,3.1042,3.1039,3.1027,3.102,3.102,3.1016,3.1007,3.0999,3.0998,3.0994,3.0989,3.0989,3.1014,3.1018,3.1021,3.1024,3.0988,3.0988,3.0963,3.0963,3.0963]}]]